Flag for U.S.A. Weather past 2 weeks in Daly City, California, U.S.A.

Now
64 °F

Partly sunny.


Feels Like: 64 °F
Forecast: 51 / 62 °F
Wind: 23 mph from Northwest

Location: San Francisco International Airport

Current Time: Mar 30, 2015 at 1:36:51 PM

Latest Report: Mar 30, 2015 at 12:56 PM


Visibility: 10 mi

Pressure: 30.06 "Hg

Humidity: 63%

Dew point: 51 °F

Location of Daly CityLocation

Historic Weather in Daly City — Graph

°F

Daly City temperature yesterday

Maximum temperature yesterday: 70 °F (at 3:56 PM)
Minimum temperature yesterday: 50 °F (at 6:56 AM)
Average temperature yesterday: 59 °F

Past Weeks' High & Low Weather Summary

 TemperatureHumidityPressure
High78 °F (Mar 26, 4:56 PM)100% (Mar 17, 3:56 AM)30.31 "Hg (Mar 17, 3:56 AM)
Low50 °F (Mar 19, 5:56 AM)29% (Mar 20, 2:56 PM)29.99 "Hg (Mar 19, 5:56 PM)
Average60 °F81%30.12 "Hg
* Reported Mar 15 11:56 AM — Mar 30 11:56 AM, Daly City, Weather by CustomWeather, © 2015

Note: Actual official high and low records may vary slightly from our data, if they occured in-between our weather recording intervals... More about our weather records

Advertising

Daly City weather history for previous 24 hours

 ConditionsComfort  
Time TempWeatherWind HumidityBarometerVisibility
11:56 AM
Mon, Mar 30
61 °FPartly sunny.20 mph72%30.07 "Hg9 mi
10:56 AM60 °FPartly sunny.18 mph75%30.08 "Hg9 mi
9:56 AM59 °FScattered clouds.16 mph78%30.07 "Hg9 mi
8:56 AM58 °FScattered clouds.10 mph81%30.05 "Hg9 mi
7:56 AM55 °FPassing clouds.6 mph93%30.04 "Hg9 mi
6:56 AM53 °FPassing clouds.8 mph96%30.02 "Hg10 mi
5:56 AM53 °FPassing clouds.12 mph100%30.02 "Hg10 mi
4:56 AM53 °FPassing clouds.10 mph93%30.02 "Hg10 mi
3:56 AM52 °FClear.3 mph83%30.02 "Hg10 mi
2:56 AM53 °FClear.5 mph93%30.02 "Hg10 mi
1:56 AM55 °FClear.3 mph87%30.03 "Hg10 mi
12:56 AM55 °FClear.7 mph87%30.03 "Hg10 mi
11:56 PM
Sun, Mar 29
56 °FClear.8 mph84%30.04 "Hg10 mi
10:56 PM57 °FPassing clouds.7 mph83%30.04 "Hg10 mi
9:56 PM57 °FPassing clouds.10 mph83%30.04 "Hg10 mi
8:56 PM58 °FPassing clouds.13 mph84%30.03 "Hg10 mi
7:56 PM58 °FScattered clouds.15 mph84%30.01 "Hg10 mi
6:56 PM61 °FPassing clouds.21 mph67%30.01 "Hg10 mi
5:56 PM64 °FPassing clouds.23 mph61%30.02 "Hg10 mi
4:56 PM67 °FPassing clouds.18 mph57%30.02 "Hg10 mi
3:56 PM70 °FPassing clouds.16 mph47%30.03 "Hg10 mi
2:56 PM69 °FPassing clouds.21 mph49%30.04 "Hg10 mi
1:56 PM69 °FPassing clouds.17 mph55%30.06 "Hg10 mi
Weather by CustomWeather, © 2015

See weather overviewHow to use our weather pages